{"data":{"norad_id":57023,"intl_designator":"2023-085V","name":"2023-085V","alt_names":[],"object_type":"PAYLOAD","status":"ACTIVE","operator":null,"country":"PRC","launch_date":"2023-06-15","launch_site_code":"TAISC","launch_vehicle":null,"mission":null,"orbit_class":"UNKNOWN","rcs_meters":null,"size_class":null,"mass_kg":null,"dimensions":null,"purposes":[],"wikipedia_slug":null,"has_3d_model":false,"image_url":null,"decayed_at":null,"tle_current":{"epoch":"2026-05-25T04:44:32.296128Z","epoch_age_seconds":61564,"freshness":"FRESH","line1":"1 57023U 23085V   26145.19759602  .00014483  00000+0  45729-3 0  9991","line2":"2 57023  97.4922 256.5048 0006955 142.4115 217.7614 15.32922363163177","mean_motion":15.32922363,"eccentricity":0.0006955,"inclination_deg":97.4922,"raan_deg":256.5048,"arg_perigee_deg":142.4115,"mean_anomaly_deg":217.7614,"bstar":0.00045729,"rev_number":16317,"period_min":93.938221188309,"perigee_km":462.33775489936,"apogee_km":471.85947764159,"semimajor_km":6845.2356162705,"source":"CELESTRAK","updated_at":"2026-05-25T13:37:59.793827Z"}}}